Back to catalog

CZ-4 DEB

AliveSSO
NORAD 26199·DEBRIS·🇨🇳 China

Launched Oct 14, 1999 from Taiyuan Satellite Launch Center

Loading…

Next Passes (next 24 hours)

TLE

FreshSource: Space-Track

Epoch: Sep 14, 2026, 11:09 UTC

1 26199U 99057CM  26257.46496708  .00002514  00000-0  40995-3 0  9995
2 26199  98.3388 333.7671 0059676 326.6728  96.7271 14.70734952399190

Track CZ-4 DEB in real time with AllMySat

Download on the App Store